JH5HTX-13 Weather Reports


Display with metric or nautical units.
time (UTC)temp
F
wind
direction
speed
MPH
gust
MPH
rain 1hr
in
rain 24hr
in
rain mn
in
humidity
%
barometer
mb
20260509101732 66 202 0.0 0.0 0.00 0.00 0.00 54 1016.9
20260509100232 68 202 0.0 0.0 0.00 0.00 0.00 50 1016.7
20260509094732 70 202 0.0 0.0 0.00 0.00 0.00 48 1016.5
20260509093232 73 202 0.0 0.0 0.00 0.00 0.00 47 1016.3
20260509091732 74 225 0.0 0.0 0.00 0.00 0.00 45 1016.2
20260509090232 75 202 0.0 0.0 0.00 0.00 0.00 44 1016.3
20260509084732 76 180 0.0 0.0 0.00 0.00 0.00 43 1016.1
20260509083232 75 225 0.0 0.0 0.00 0.00 0.00 41 1016.1
20260509081732 75 202 0.0 0.0 0.00 0.00 0.00 41 1016.0
20260509080232 75 225 0.0 0.0 0.00 0.00 0.00 41 1015.9
20260509074731 76 248 0.0 0.0 0.00 0.00 0.00 42 1015.9
20260509073231 76 292 0.0 0.0 0.00 0.00 0.00 41 1015.7
20260509071731 75 315 0.0 0.0 0.00 0.00 0.00 42 1015.6
20260509070231 75 45 0.0 0.0 0.00 0.00 0.00 39 1015.8
20260509064731 75 292 0.0 0.0 0.00 0.00 0.00 41 1015.9
20260509063231 75 315 0.0 0.0 0.00 0.00 0.00 41 1016.1
20260509061731 75 315 0.0 0.0 0.00 0.00 0.00 42 1016.1
20260509060231 74 22 0.0 0.0 0.00 0.00 0.00 42 1016.2
20260509054731 74 270 0.0 0.0 0.00 0.00 0.00 43 1016.4
20260509053230 74 225 0.0 0.0 0.00 0.00 0.00 42 1016.5
20260509051730 73 180 0.0 0.0 0.00 0.00 0.00 43 1016.4
20260509050230 73 248 0.0 0.0 0.00 0.00 0.00 45 1016.5
20260509044730 72 0 0.0 0.0 0.00 0.00 0.00 45 1016.8
20260509043230 71 22 0.0 0.0 0.00 0.00 0.00 45 1017.0
20260509041730 71 158 0.0 0.0 0.00 0.00 0.00 45 1017.3
20260509040230 70 0 0.0 0.0 0.00 0.00 0.00 45 1017.3
20260509034730 70 225 0.0 0.0 0.00 0.00 0.00 45 1017.5
20260509033230 69 68 0.0 0.0 0.00 0.00 0.00 46 1017.6
20260509031730 69 22 0.0 0.0 0.00 0.00 0.00 45 1017.8
20260509030229 69 315 0.0 0.0 0.00 0.00 0.00 46 1017.9
20260509025506 69 332 0.0 0.0 0.00 0.00 0.00 48 1018.0
20260509024006 68 265 0.0 0.0 0.00 0.00 0.00 48 1018.1
20260509022506 68 315 0.0 0.0 0.00 0.00 0.00 47 1018.3
20260509021006 67 259 0.0 0.0 0.00 0.00 0.00 48 1018.4
20260509015506 67 304 0.0 0.0 0.00 0.00 0.00 50 1018.7
20260509014005 66 1 0.0 0.0 0.00 0.00 0.00 51 1018.9
20260509012505 66 237 0.0 0.0 0.00 0.00 0.00 52 1018.8
20260509011005 65 22 0.0 0.0 0.00 0.00 0.00 52 1019.0
20260509005505 64 300 0.0 0.0 0.00 0.00 0.00 54 1019.0
20260509004005 64 243 0.0 0.0 0.00 0.00 0.00 54 1019.1
20260509002505 63 234 0.0 0.0 0.00 0.00 0.00 56 1019.2
20260509001005 63 190 0.0 0.0 0.00 0.00 0.00 57 1019.1
20260508235505 62 180 0.0 0.0 0.00 0.00 0.00 58 1019.2
20260508234005 62 158 0.0 0.0 0.00 0.00 0.00 60 1019.2
20260508232505 61 22 0.0 0.0 0.00 0.00 0.00 62 1019.2
20260508231004 60 135 0.0 0.0 0.00 0.00 0.00 66 1019.1
20260508225504 60 135 0.0 0.0 0.00 0.00 0.00 71 1019.0
20260508224004 58 202 0.0 0.0 0.00 0.00 0.00 75 1018.9
20260508222504 57 225 0.0 0.0 0.00 0.00 0.00 78 1019.0
20260508221004 56 225 0.0 0.0 0.00 0.00 0.00 80 1018.8
20260508215504 55 225 0.0 0.0 0.00 0.00 0.00 81 1018.6
20260508214004 54 248 0.0 0.0 0.00 0.00 0.00 82 1018.4
20260508212504 53 248 0.0 0.0 0.00 0.00 0.00 82 1018.2
20260508211004 52 248 0.0 0.0 0.00 0.00 0.00 81 1018.2
20260508205504 52 248 0.0 0.0 0.00 0.00 0.00 80 1018.1
20260508204003 52 248 0.0 0.0 0.00 0.00 0.00 79 1017.9
20260508202503 52 248 0.0 0.0 0.00 0.00 0.00 79 1017.9
20260508201003 52 248 0.0 0.0 0.00 0.00 0.00 78 1017.7
20260508195503 53 248 0.0 0.0 0.00 0.00 0.00 77 1017.5
20260508194003 53 248 0.0 0.0 0.00 0.00 0.00 76 1017.3
20260508192503 53 248 0.0 0.0 0.00 0.00 0.00 74 1017.1
20260508191003 54 248 0.0 0.0 0.00 0.00 0.00 73 1016.9
20260508185503 55 248 0.0 0.0 0.00 0.00 0.00 72 1016.8
20260508184003 55 248 0.0 0.0 0.00 0.00 0.00 71 1016.5
20260508182502 56 270 0.0 0.0 0.00 0.00 0.00 68 1016.3
20260508181002 57 270 0.0 0.0 0.00 0.00 0.00 68 1016.3
20260508175502 57 270 0.0 0.0 0.00 0.00 0.00 67 1016.0
20260508174002 58 292 0.0 0.0 0.00 0.00 0.00 66 1015.9
20260508172502 58 315 0.0 0.0 0.00 0.00 0.00 64 1015.7
20260508171002 59 315 0.0 0.0 0.00 0.00 0.00 63 1015.9
20260508165502 58 315 0.0 0.0 0.00 0.00 0.00 64 1015.9
20260508164002 57 202 0.0 0.0 0.00 0.00 0.00 64 1015.8
20260508162502 57 180 0.0 0.0 0.00 0.00 0.00 64 1015.5
20260508161001 58 180 0.0 0.0 0.00 0.00 0.00 62 1015.6
20260508155501 58 180 0.0 0.0 0.00 0.00 0.00 60 1015.3
20260508154001 60 180 0.0 0.0 0.00 0.00 0.00 56 1015.1
20260508152501 61 303 0.0 0.0 0.00 0.00 0.00 53 1015.1